Thunderstorms From: 26-05-2018 05:06 Until: 27-05-2018 05:00 warning for: Thunderstorms Level: Yellow info button

Although rather usual in this region, locally or potentially dangerous phenomena are expected. (such as local winds, summer thunderstorms, rising streams or high waves) Be aware and pay attention to the latest weather updates, especially if you carry out activities exposed to weather or close to a stream or shoreline. 


Meteo18 Weather Cam more information Meteo18 Weather Cam


warning for Thunderstorms more information blitzortung!


Rain radar more information rain snow radar


Visit our other weather sites:

Template documentation
and downloads

And another site



Weather Underground History page Text

Daily Summary for May 1, 2017 Units:  Metric    English   Both
« Previous Day
Next Day »
Daily Weekly Monthly Yearly Custom
  High: Low: Average:
Temperature: -17.8 °C -14.3 °C -12.7 °C
Dew Point: -17.8 °C -15.9 °C -14.8 °C
Humidity: Humidity % 53 % 78 %
Wind Speed: 0 km/h 0 km/h 17.5 km/h
Wind Gust: 0 km/h - -
Wind:- - SW
Pressure: 0 hPa 34097 hPa -
Precipitation: 12.7 mm    
Historical Graphs
 
 
Tabular Data for May 1, 2017
Time Temperature Dew Point Pressure Wind Wind Speed Wind Gust Humidity Rainfall Rate (Hourly)
-17.8 °C -17.8 °C 0 hPa Calm     Humidity % 0 mm
00:02 -13.8 °C -14.6 °C 34120.7 hPa SW 15.6 km/h 33.6 km/h 91 % 0 mm
00:12 -13.9 °C -14.7 °C 34097 hPa SW 12.9 km/h 41.4 km/h 90 % 0 mm
00:22 -13.9 °C -14.7 °C 34107.2 hPa SSW 15.6 km/h 41.4 km/h 91 % 0 mm
00:32 -14 °C -14.8 °C 34107.2 hPa South 18.2 km/h 36.2 km/h 90 % 0 mm
00:37 -14 °C -14.8 °C 34107.2 hPa South 10.3 km/h 33.6 km/h 90 % 0 mm
00:42 -14 °C -14.8 °C 34107.2 hPa SSW 7.7 km/h 33.6 km/h 91 % 0 mm
00:52 -14.1 °C -14.8 °C 34107.2 hPa South 20.8 km/h 38.8 km/h 91 % 0 mm
01:02 -14.1 °C -14.8 °C 34107.2 hPa South 15.6 km/h 38.8 km/h 91 % 0 mm
01:12 -14.1 °C -14.9 °C 34107.2 hPa SSW 23.3 km/h 36.2 km/h 91 % 0 mm
01:17 -14.1 °C -14.9 °C 34120.7 hPa SSE 10.3 km/h 36.2 km/h 91 % 0 mm
01:22 -14.1 °C -14.9 °C 34120.7 hPa SSW 20.8 km/h 33.6 km/h 91 % 0 mm
01:32 -14.1 °C -14.9 °C 34120.7 hPa SSW 15.6 km/h 33.6 km/h 90 % 0 mm
01:42 -14.1 °C -14.9 °C 34120.7 hPa SSW 10.3 km/h 38.8 km/h 91 % 0 mm
01:52 -14.1 °C -14.9 °C 34130.9 hPa South 25.9 km/h 36.2 km/h 90 % 0 mm
01:57 -14.1 °C -14.9 °C 34130.9 hPa SSW 15.6 km/h 36.2 km/h 90 % 0 mm
02:02 -14.1 °C -14.9 °C 34120.7 hPa SW 7.7 km/h 36.2 km/h 90 % 0 mm
02:07 -14.1 °C -14.9 °C 34120.7 hPa South 18.2 km/h 36.2 km/h 90 % 0 mm
02:12 -14.2 °C -15 °C 34130.9 hPa SSW 12.9 km/h 36.2 km/h 90 % 0 mm
02:17 -14.2 °C -15 °C 34130.9 hPa South 15.6 km/h 31.1 km/h 90 % 0 mm
02:22 -14.1 °C -14.9 °C 34130.9 hPa SSE 10.3 km/h 31.1 km/h 90 % 0 mm
02:27 -14.2 °C -15 °C 34130.9 hPa SW 15.6 km/h 25.9 km/h 90 % 0 mm
02:32 -14.1 °C -14.9 °C 34144.4 hPa SW 12.9 km/h 25.9 km/h 90 % 0 mm
02:42 -14.1 °C -14.9 °C 34130.9 hPa SE 15.6 km/h 31.1 km/h 90 % 0 mm
02:47 -14.1 °C -14.9 °C 34144.4 hPa SW 20.8 km/h 33.6 km/h 90 % 0 mm
02:52 -14.1 °C -14.9 °C 34144.4 hPa South 20.8 km/h 33.6 km/h 90 % 0 mm
03:02 -14 °C -14.8 °C 34144.4 hPa SW 38.8 km/h 38.8 km/h 90 % 0 mm
03:07 -14 °C -14.8 °C 34144.4 hPa SSW 15.6 km/h 38.8 km/h 90 % 0 mm
03:12 -14.1 °C -14.9 °C 34144.4 hPa SSW 31.1 km/h 38.8 km/h 90 % 0 mm
03:17 -14.1 °C -14.9 °C 34154.6 hPa SSW 18.2 km/h 38.8 km/h 90 % 0 mm
03:22 -14.1 °C -14.9 °C 34154.6 hPa SSW 18.2 km/h 33.6 km/h 90 % 0 mm
03:27 -14.1 °C -14.8 °C 34154.6 hPa South 12.9 km/h 33.6 km/h 91 % 0 mm
03:32 -14.1 °C -14.8 °C 34154.6 hPa SW 23.3 km/h 31.1 km/h 91 % 0 mm
03:37 -14.1 °C -14.8 °C 34154.6 hPa SE 15.6 km/h 33.6 km/h 91 % 0 mm
03:42 -14.1 °C -14.8 °C 34154.6 hPa SSW 15.6 km/h 33.6 km/h 91 % 0 mm
03:47 -14.1 °C -14.8 °C 34164.7 hPa SSW 12.9 km/h 33.6 km/h 91 % 0 mm
03:52 -14.1 °C -14.9 °C 34164.7 hPa SSW 20.8 km/h 33.6 km/h 91 % 0 mm
03:57 -14.1 °C -14.9 °C 34164.7 hPa SSW 18.2 km/h 36.2 km/h 90 % 0 mm
04:02 -14.1 °C -14.9 °C 34164.7 hPa SW 20.8 km/h 38.8 km/h 90 % 0 mm
04:12 -14.1 °C -15.1 °C 34178.3 hPa SSW 20.8 km/h 38.8 km/h 89 % 0 mm
04:17 -14.1 °C -15.1 °C 34178.3 hPa WSW 12.9 km/h 33.6 km/h 89 % 0 mm
04:22 -14.1 °C -15.1 °C 34178.3 hPa SW 15.6 km/h 33.6 km/h 89 % 0 mm
04:27 -14.1 °C -15.1 °C 34178.3 hPa SSW 15.6 km/h 31.1 km/h 89 % 0 mm
04:37 -14.1 °C -15.1 °C 34178.3 hPa SW 12.9 km/h 33.6 km/h 89 % 0 mm
04:42 -14.1 °C -15.1 °C 34178.3 hPa SSE 20.8 km/h 41.4 km/h 89 % 0 mm
04:47 -14.1 °C -15.1 °C 34178.3 hPa WSW 25.9 km/h 41.4 km/h 89 % 0 mm
04:52 -14.1 °C -15.1 °C 34188.4 hPa SW 20.8 km/h 41.4 km/h 89 % 0 mm
04:57 -14.1 °C -14.9 °C 34188.4 hPa SW 25.9 km/h 36.2 km/h 90 % 0 mm
05:02 -14.1 °C -14.9 °C 34188.4 hPa SW 31.1 km/h 36.2 km/h 90 % 0 mm
05:07 -14.1 °C -14.9 °C 34198.6 hPa SW 20.8 km/h 36.2 km/h 90 % 0 mm
05:12 -14.1 °C -14.9 °C 34198.6 hPa SW 12.9 km/h 36.2 km/h 91 % 0 mm
05:17 -14.1 °C -14.9 °C 34198.6 hPa WSW 20.8 km/h 38.8 km/h 91 % 0 mm
05:22 -14.1 °C -14.9 °C 34198.6 hPa SW 15.6 km/h 38.8 km/h 90 % 0 mm
05:27 -14.1 °C -14.9 °C 34198.6 hPa WSW 18.2 km/h 38.8 km/h 90 % 0 mm
05:32 -14.1 °C -14.9 °C 34212.1 hPa West 23.3 km/h 38.8 km/h 90 % 0 mm
05:37 -14.2 °C -14.9 °C 34212.1 hPa SSW 15.6 km/h 36.2 km/h 91 % 0 mm
05:42 -14.2 °C -15 °C 34212.1 hPa SW 25.9 km/h 36.2 km/h 91 % 0 mm
05:47 -14.2 °C -15 °C 34212.1 hPa SW 15.6 km/h 41.4 km/h 91 % 0 mm
05:57 -14.2 °C -14.9 °C 34212.1 hPa SW 12.9 km/h 36.2 km/h 92 % 0 mm
06:02 -14.3 °C -14.9 °C 34222.3 hPa SW 15.6 km/h 36.2 km/h 92 % 0 mm
06:07 -14.2 °C -14.9 °C 34222.3 hPa SW 23.3 km/h 38.8 km/h 92 % 0 mm
06:12 -14.2 °C -14.9 °C 34235.8 hPa SW 15.6 km/h 38.8 km/h 92 % 0 mm
06:17 -14.2 °C -14.9 °C 34235.8 hPa WSW 18.2 km/h 36.2 km/h 92 % 0 mm
06:22 -14.2 °C -14.9 °C 34235.8 hPa SW 20.8 km/h 36.2 km/h 92 % 0 mm
06:27 -14.2 °C -14.8 °C 34235.8 hPa SSW 12.9 km/h 36.2 km/h 93 % 0 mm
06:32 -14.2 °C -14.8 °C 34235.8 hPa WSW 10.3 km/h 36.2 km/h 92 % 0 mm
06:37 -14.2 °C -14.8 °C 34235.8 hPa WSW 23.3 km/h 36.2 km/h 92 % 0 mm
06:42 -14.2 °C -14.8 °C 34246 hPa SW 18.2 km/h 31.1 km/h 92 % 0 mm
06:47 -14.1 °C -14.8 °C 34246 hPa SW 20.8 km/h 31.1 km/h 92 % 0 mm
06:52 -14.1 °C -14.8 °C 34246 hPa WSW 23.3 km/h 38.8 km/h 92 % 0 mm
06:57 -14.1 °C -14.8 °C 34246 hPa SW 18.2 km/h 41.4 km/h 92 % 0 mm
07:02 -14.1 °C -14.7 °C 34256.2 hPa WSW 25.9 km/h 41.4 km/h 92 % 0 mm
07:12 -14.1 °C -14.7 °C 34256.2 hPa SW 20.8 km/h 33.6 km/h 92 % 0 mm
07:17 -14.1 °C -14.7 °C 34256.2 hPa WSW 25.9 km/h 31.1 km/h 92 % 0 mm
07:27 -14 °C -14.7 °C 34256.2 hPa SW 23.3 km/h 33.6 km/h 92 % 0 mm
07:32 -14 °C -14.7 °C 34256.2 hPa WSW 25.9 km/h 33.6 km/h 92 % 0 mm
07:37 -14 °C -14.8 °C 34269.7 hPa SW 20.8 km/h 38.8 km/h 91 % 0 mm
07:42 -14 °C -14.8 °C 34269.7 hPa SW 23.3 km/h 38.8 km/h 91 % 0 mm
07:47 -13.9 °C -14.7 °C 34269.7 hPa SW 15.6 km/h 38.8 km/h 91 % 0 mm
07:52 -13.9 °C -14.7 °C 34279.9 hPa WSW 10.3 km/h 36.2 km/h 91 % 0 mm
07:57 -13.9 °C -14.7 °C 34279.9 hPa SW 7.7 km/h 33.6 km/h 91 % 0 mm
08:02 -13.9 °C -14.7 °C 34279.9 hPa WSW 10.3 km/h 33.6 km/h 91 % 0 mm
08:12 -13.9 °C -14.7 °C 34293.4 hPa WSW 10.3 km/h 33.6 km/h 91 % 0 mm
08:17 -13.9 °C -14.7 °C 34293.4 hPa SW 7.7 km/h 33.6 km/h 91 % 0 mm
08:22 -13.8 °C -14.7 °C 34293.4 hPa SW 31.1 km/h 33.6 km/h 90 % 0 mm
08:27 -13.8 °C -14.7 °C 34293.4 hPa WSW 12.9 km/h 38.8 km/h 90 % 0 mm
08:32 -13.8 °C -14.7 °C 34303.6 hPa SW 20.8 km/h 38.8 km/h 90 % 0 mm
08:37 -13.8 °C -14.7 °C 34303.6 hPa SW 15.6 km/h 38.8 km/h 90 % 0 mm
08:42 -13.8 °C -14.6 °C 34303.6 hPa SW 18.2 km/h 38.8 km/h 90 % 0 mm
08:47 -13.8 °C -14.6 °C 34303.6 hPa WSW 10.3 km/h 36.2 km/h 90 % 0 mm
08:52 -13.7 °C -14.7 °C 34303.6 hPa SW 36.2 km/h 38.8 km/h 89 % 0 mm
08:57 -13.7 °C -14.6 °C 34313.7 hPa SW 7.7 km/h 38.8 km/h 89 % 0 mm
09:02 -13.7 °C -14.7 °C 34313.7 hPa WSW 33.6 km/h 38.8 km/h 88 % 0 mm
09:07 -13.6 °C -14.7 °C 34313.7 hPa West 12.9 km/h 51.8 km/h 88 % 0 mm
09:12 -13.6 °C -14.6 °C 34313.7 hPa SW 10.3 km/h 51.8 km/h 88 % 0 mm
09:17 -13.4 °C -14.6 °C 34327.3 hPa WSW 15.6 km/h 38.8 km/h 87 % 0 mm
09:22 -13.4 °C -14.5 °C 34327.3 hPa WSW 10.3 km/h 38.8 km/h 87 % 0 mm
09:32 -13.2 °C -14.6 °C 34327.3 hPa WSW 10.3 km/h 31.1 km/h 85 % 0 mm
09:37 -13.1 °C -14.4 °C 34313.7 hPa SW 23.3 km/h 31.1 km/h 85 % 0 mm
09:42 -12.9 °C -14.3 °C 34313.7 hPa SW 18.2 km/h 36.2 km/h 84 % 0 mm
09:47 -12.8 °C -14.3 °C 34313.7 hPa SW 25.9 km/h 36.2 km/h 84 % 0 mm
09:57 -12.7 °C -14.2 °C 34327.3 hPa SSW 23.3 km/h 49.2 km/h 83 % 0 mm
10:02 -12.6 °C -14.1 °C 34327.3 hPa SW 5.1 km/h 49.2 km/h 83 % 0 mm
10:12 -12.4 °C -14.3 °C 34327.3 hPa SW 10.3 km/h 41.4 km/h 80 % 0 mm
10:17 -12.4 °C -14.4 °C 34327.3 hPa West 33.6 km/h 41.4 km/h 78 % 0 mm
10:22 -12.6 °C -14.7 °C 34327.3 hPa West 18.2 km/h 38.8 km/h 77 % 0 mm
10:32 -12.4 °C -14.4 °C 34337.4 hPa West 12.9 km/h 54.4 km/h 79 % 0 mm
10:37 -12.2 °C -14.1 °C 34337.4 hPa WSW 23.3 km/h 41.4 km/h 80 % 0 mm
10:42 -12.1 °C -14.1 °C 34337.4 hPa SW 25.9 km/h 41.4 km/h 78 % 0 mm
10:52 -11.9 °C -14.2 °C 34337.4 hPa SW 18.2 km/h 44.1 km/h 76 % 0 mm
10:57 -12 °C -14.4 °C 34337.4 hPa WSW 18.2 km/h 46.7 km/h 74 % 0 mm
11:02 -11.9 °C -14.6 °C 34337.4 hPa WSW 25.9 km/h 46.7 km/h 72 % 0 mm
11:07 -11.9 °C -14.7 °C 34337.4 hPa WNW 15.6 km/h 46.7 km/h 71 % 0 mm
11:12 -11.7 °C -14.3 °C 34337.4 hPa WSW 23.3 km/h 46.7 km/h 73 % 0 mm
11:17 -11.7 °C -14.4 °C 34327.3 hPa West 20.8 km/h 51.8 km/h 72 % 0 mm
11:22 -11.7 °C -14.8 °C 34337.4 hPa WSW 41.4 km/h 51.8 km/h 69 % 0 mm
11:27 -11.7 °C -14.7 °C 34337.4 hPa SW 28.5 km/h 51.8 km/h 70 % 0 mm
11:32 -11.7 °C -14.9 °C 34337.4 hPa West 15.6 km/h 51.8 km/h 68 % 0 mm
11:42 -11.6 °C -14.9 °C 34337.4 hPa West 28.5 km/h 51.8 km/h 66 % 0 mm
11:52 -11.4 °C -15.1 °C 34337.4 hPa SW 49.2 km/h 51.8 km/h 64 % 0 mm
11:57 -11.4 °C -14.8 °C 34337.4 hPa West 25.9 km/h 59.5 km/h 66 % 0 mm
12:02 -11.3 °C -14.7 °C 34337.4 hPa WSW 44.1 km/h 62.1 km/h 66 % 0 mm
12:12 -11.2 °C -14.4 °C 34337.4 hPa WSW 15.6 km/h 62.1 km/h 68 % 0 mm
12:17 -11.1 °C -14.3 °C 34337.4 hPa West 33.6 km/h 62.1 km/h 67 % 0 mm
12:22 -11.2 °C -14.8 °C 34337.4 hPa WSW 36.2 km/h 59.5 km/h 65 % 0 mm
12:27 -11.2 °C -14.8 °C 34337.4 hPa West 36.2 km/h 51.8 km/h 64 % 0 mm
12:32 -11.1 °C -14.8 °C 34337.4 hPa WSW 46.7 km/h 51.8 km/h 64 % 0 mm
12:37 -11.2 °C -14.8 °C 34337.4 hPa West 23.3 km/h 51.8 km/h 64 % 0 mm
12:42 -10.9 °C -14.7 °C 34337.4 hPa WNW 28.5 km/h 49.2 km/h 63 % 0 mm
12:47 -11.1 °C -15 °C 34337.4 hPa WSW 18.2 km/h 57 km/h 62 % 0 mm
12:52 -11 °C -14.6 °C 34337.4 hPa West 31.1 km/h 57 km/h 65 % 0 mm
12:57 -10.9 °C -14.6 °C 34337.4 hPa West 23.3 km/h 57 km/h 64 % 0 mm
13:02 -11.1 °C -15 °C 34337.4 hPa SW 12.9 km/h 44.1 km/h 62 % 0 mm
13:12 -11.1 °C -14.5 °C 34337.4 hPa West 12.9 km/h 49.2 km/h 66 % 0 mm
13:17 -11 °C -14.7 °C 34347.6 hPa West 23.3 km/h 49.2 km/h 64 % 0 mm
13:22 -10.8 °C -14 °C 34347.6 hPa WSW 23.3 km/h 44.1 km/h 68 % 0 mm
13:32 -11 °C -14.8 °C 34347.6 hPa West 23.3 km/h 46.7 km/h 63 % 0 mm
13:37 -11.1 °C -14.8 °C 34347.6 hPa West 36.2 km/h 46.7 km/h 63 % 0 mm
13:42 -11 °C -14.7 °C 34347.6 hPa WSW 20.8 km/h 44.1 km/h 64 % 0 mm
13:52 -10.8 °C -15.4 °C 34347.6 hPa West 23.3 km/h 49.2 km/h 57 % 0 mm
13:57 -10.6 °C -14.8 °C 34347.6 hPa WSW 31.1 km/h 49.2 km/h 60 % 0 mm
14:07 -11 °C -14.6 °C 34361.1 hPa WSW 33.6 km/h 51.8 km/h 65 % 0 mm
14:17 -11.9 °C -14.4 °C 34347.6 hPa West 18.2 km/h 62.1 km/h 73 % 7.62 mm
14:27 -11.6 °C -14.2 °C 34361.1 hPa WSW 20.8 km/h 44.1 km/h 73 % 7.62 mm
14:32 -11.4 °C -14.3 °C 34361.1 hPa West 31.1 km/h 49.2 km/h 71 % 12.7 mm
14:42 -11.4 °C -14.7 °C 34361.1 hPa West 23.3 km/h 64.7 km/h 67 % 12.7 mm
14:47 -11.3 °C -14.8 °C 34361.1 hPa SW 20.8 km/h 64.7 km/h 65 % 12.7 mm
14:52 -11.1 °C -15.1 °C 34361.1 hPa WSW 20.8 km/h 64.7 km/h 62 % 12.7 mm
14:57 -11.1 °C -14.8 °C 34361.1 hPa WSW 12.9 km/h 49.2 km/h 63 % 12.7 mm
15:02 -10.9 °C -15 °C 34361.1 hPa SW 25.9 km/h 49.2 km/h 61 % 12.7 mm
15:12 -10.8 °C -15.1 °C 34361.1 hPa SSW 25.9 km/h 46.7 km/h 59 % 7.62 mm
15:17 -10.7 °C -14.9 °C 34371.3 hPa WSW 38.8 km/h 46.7 km/h 60 % 7.62 mm
15:22 -10.7 °C -14.7 °C 34371.3 hPa SW 44.1 km/h 51.8 km/h 62 % 7.62 mm
15:32 -11 °C -15.1 °C 34371.3 hPa SSW 15.6 km/h 54.4 km/h 61 % 0 mm
15:42 -10.7 °C -15 °C 34371.3 hPa WSW 36.2 km/h 46.7 km/h 59 % 0 mm
15:52 -10.8 °C -14.4 °C 34371.3 hPa WNW 36.2 km/h 54.4 km/h 65 % 0 mm
15:57 -11.3 °C -14.7 °C 34371.3 hPa West 20.8 km/h 54.4 km/h 66 % 0 mm
16:02 -11.6 °C -14.6 °C 34384.8 hPa West 28.5 km/h 54.4 km/h 69 % 0 mm
16:07 -11.7 °C -14.8 °C 34384.8 hPa West 23.3 km/h 51.8 km/h 68 % 0 mm
16:12 -11.6 °C -14.9 °C 34384.8 hPa West 15.6 km/h 51.8 km/h 67 % 0 mm
16:17 -11.5 °C -14.9 °C 34384.8 hPa West 15.6 km/h 49.2 km/h 66 % 0 mm
16:22 -11.3 °C -14.9 °C 34384.8 hPa West 25.9 km/h 44.1 km/h 65 % 0 mm
16:32 -11.1 °C -14.8 °C 34384.8 hPa SW 7.7 km/h 41.4 km/h 63 % 0 mm
16:37 -10.8 °C -15.1 °C 34384.8 hPa West 12.9 km/h 41.4 km/h 59 % 0 mm
16:42 -10.7 °C -15.3 °C 34384.8 hPa West 23.3 km/h 51.8 km/h 57 % 0 mm
16:47 -10.7 °C -15.3 °C 34384.8 hPa SW 20.8 km/h 51.8 km/h 57 % 0 mm
16:57 -10.6 °C -14.9 °C 34384.8 hPa SW 49.2 km/h 49.2 km/h 59 % 0 mm
17:02 -10.7 °C -14.9 °C 34384.8 hPa SW 23.3 km/h 49.2 km/h 60 % 0 mm
17:12 -11 °C -14.9 °C 34384.8 hPa WSW 12.9 km/h 49.2 km/h 62 % 0 mm
17:17 -10.9 °C -15 °C 34395 hPa SW 15.6 km/h 49.2 km/h 61 % 0 mm
17:22 -10.9 °C -15.3 °C 34384.8 hPa WSW 23.3 km/h 49.2 km/h 58 % 0 mm
17:27 -10.8 °C -15.7 °C 34395 hPa WSW 25.9 km/h 44.1 km/h 55 % 0 mm
17:32 -10.8 °C -15.2 °C 34395 hPa WSW 23.3 km/h 44.1 km/h 58 % 0 mm
17:37 -10.8 °C -15.5 °C 34395 hPa WNW 25.9 km/h 44.1 km/h 56 % 0 mm
17:42 -10.7 °C -15.5 °C 34395 hPa West 20.8 km/h 33.6 km/h 56 % 0 mm
17:47 -10.7 °C -15.4 °C 34395 hPa WNW 7.7 km/h 36.2 km/h 56 % 0 mm
17:52 -10.7 °C -15.4 °C 34395 hPa West 12.9 km/h 36.2 km/h 56 % 0 mm
18:02 -10.8 °C -15.7 °C 34395 hPa SW 20.8 km/h 25.9 km/h 55 % 0 mm
18:12 -10.7 °C -15.6 °C 34395 hPa West 20.8 km/h 33.6 km/h 55 % 0 mm
18:17 -10.7 °C -15.5 °C 34395 hPa SW 18.2 km/h 33.6 km/h 56 % 0 mm
18:22 -10.7 °C -15.2 °C 34395 hPa SW 10.3 km/h 33.6 km/h 58 % 0 mm
18:27 -10.7 °C -14.7 °C 34395 hPa WSW 15.6 km/h 33.6 km/h 61 % 0 mm
18:32 -10.7 °C -14.7 °C 34395 hPa WSW 12.9 km/h 38.8 km/h 61 % 0 mm
18:37 -10.6 °C -15.7 °C 34395 hPa WSW 23.3 km/h 38.8 km/h 54 % 0 mm
18:42 -10.6 °C -15.8 °C 34395 hPa SW 23.3 km/h 41.4 km/h 53 % 0 mm
18:47 -10.6 °C -15.7 °C 34405.1 hPa WSW 28.5 km/h 49.2 km/h 54 % 0 mm
18:52 -10.7 °C -15.7 °C 34405.1 hPa SW 28.5 km/h 49.2 km/h 54 % 0 mm
19:02 -10.8 °C -15.9 °C 34395 hPa WSW 25.9 km/h 41.4 km/h 53 % 0 mm
19:12 -10.8 °C -15.4 °C 34395 hPa SW 25.9 km/h 38.8 km/h 57 % 0 mm
19:17 -10.9 °C -15.3 °C 34395 hPa SW 18.2 km/h 36.2 km/h 58 % 0 mm
19:22 -10.9 °C -15.3 °C 34405.1 hPa WSW 15.6 km/h 36.2 km/h 59 % 0 mm
19:32 -11.1 °C -15.2 °C 34405.1 hPa SW 7.7 km/h 31.1 km/h 61 % 0 mm
19:42 -11.1 °C -15 °C 34405.1 hPa WSW 18.2 km/h 20.8 km/h 62 % 0 mm
19:47 -11.2 °C -14.9 °C 34405.1 hPa SW 12.9 km/h 20.8 km/h 63 % 0 mm
19:57 -11.4 °C -14.9 °C 34405.1 hPa SSW 7.7 km/h 23.3 km/h 65 % 0 mm
20:02 -11.6 °C -14.9 °C 34405.1 hPa South 5.1 km/h 23.3 km/h 67 % 0 mm
20:07 -11.7 °C -15 °C 34405.1 hPa SW 15.6 km/h 23.3 km/h 67 % 0 mm
20:12 -11.8 °C -14.8 °C 34405.1 hPa SW 5.1 km/h 23.3 km/h 69 % 0 mm
20:17 -11.9 °C -14.9 °C 34405.1 hPa SW 7.7 km/h 23.3 km/h 69 % 0 mm
20:22 -12.1 °C -14.8 °C 34405.1 hPa SSW 7.7 km/h 20.8 km/h 71 % 0 mm
20:27 -12.2 °C -14.8 °C 34418.7 hPa South 2.6 km/h 15.6 km/h 72 % 0 mm
20:32 -12.3 °C -14.8 °C 34405.1 hPa SSW 5.1 km/h 15.6 km/h 73 % 0 mm
20:37 -12.3 °C -14.8 °C 34418.7 hPa SW 5.1 km/h 12.9 km/h 74 % 0 mm
20:42 -12.4 °C -14.8 °C 34405.1 hPa SSW 5.1 km/h 12.9 km/h 74 % 0 mm
20:47 -12.4 °C -14.8 °C 34405.1 hPa SW 7.7 km/h 12.9 km/h 75 % 0 mm
20:52 -12.6 °C -14.8 °C 34405.1 hPa SSW 5.1 km/h 15.6 km/h 76 % 0 mm
20:57 -12.6 °C -14.7 °C 34405.1 hPa SSW 2.6 km/h 15.6 km/h 77 % 0 mm
21:02 -12.7 °C -14.7 °C 34405.1 hPa Calm   12.9 km/h 78 % 0 mm
21:12 -12.7 °C -14.7 °C 34405.1 hPa SW 2.6 km/h 7.7 km/h 78 % 0 mm
21:17 -12.8 °C -14.7 °C 34418.7 hPa Calm   5.1 km/h 79 % 0 mm
21:22 -12.8 °C -14.7 °C 34418.7 hPa Calm   5.1 km/h 79 % 0 mm
21:32 -12.9 °C -14.8 °C 34418.7 hPa SSE 2.6 km/h 5.1 km/h 79 % 0 mm
21:37 -12.9 °C -14.8 °C 34418.7 hPa Calm   5.1 km/h 79 % 0 mm
21:42 -13 °C -14.8 °C 34418.7 hPa South 2.6 km/h 5.1 km/h 80 % 0 mm
21:47 -13.1 °C -14.9 °C 34428.8 hPa SSW 2.6 km/h 5.1 km/h 80 % 0 mm
21:52 -13.2 °C -14.8 °C 34428.8 hPa Calm   5.1 km/h 82 % 0 mm
21:57 -13.3 °C -14.8 °C 34428.8 hPa Calm   5.1 km/h 83 % 0 mm
22:02 -13.3 °C -14.8 °C 34428.8 hPa SW 2.6 km/h 5.1 km/h 83 % 0 mm
22:12 -13.4 °C -15.1 °C 34428.8 hPa South 2.6 km/h 5.1 km/h 82 % 0 mm
22:17 -13.5 °C -15 °C 34418.7 hPa Calm   5.1 km/h 83 % 0 mm
22:22 -13.6 °C -15.1 °C 34428.8 hPa Calm   5.1 km/h 83 % 0 mm
22:27 -13.7 °C -15.2 °C 34428.8 hPa Calm   5.1 km/h 83 % 0 mm
22:32 -13.7 °C -15.1 °C 34418.7 hPa SSW 2.6 km/h 5.1 km/h 84 % 0 mm
22:42 -13.7 °C -15 °C 34418.7 hPa South 5.1 km/h 12.9 km/h 85 % 0 mm
22:47 -13.7 °C -14.9 °C 34418.7 hPa SSW 5.1 km/h 12.9 km/h 86 % 0 mm
22:57 -13.7 °C -15 °C 34418.7 hPa SSW 2.6 km/h 10.3 km/h 85 % 0 mm
23:02 -13.7 °C -14.9 °C 34418.7 hPa SSW 2.6 km/h 10.3 km/h 86 % 0 mm
23:07 -13.7 °C -14.9 °C 34428.8 hPa SSW 5.1 km/h 10.3 km/h 86 % 0 mm
23:12 -13.6 °C -14.7 °C 34428.8 hPa SW 7.7 km/h 15.6 km/h 87 % 0 mm
23:17 -13.6 °C -14.7 °C 34428.8 hPa SW 10.3 km/h 15.6 km/h 87 % 0 mm
23:22 -13.5 °C -14.7 °C 34428.8 hPa SW 7.7 km/h 18.2 km/h 86 % 0 mm
23:32 -13.4 °C -14.6 °C 34428.8 hPa SW 5.1 km/h 12.9 km/h 86 % 0 mm
23:42 -13.3 °C -14.6 °C 34418.7 hPa SSW 5.1 km/h 12.9 km/h 85 % 0 mm
23:47 -13.3 °C -14.6 °C 34418.7 hPa SW 10.3 km/h 12.9 km/h 85 % 0 mm
23:52 -13.3 °C -14.6 °C 34418.7 hPa SW 2.6 km/h 12.9 km/h 85 % 0 mm
Meteo18
Compliments of Weather Underground - 4 mb

Script developed by  Jim McMurry - jmcmurry@mwt.net Adapted for the template by  Wim van der Kuil - Leuven-Template.eu

You find our weather info also at:

European Weather Network

Weather Underground

Equipment we use:

Weather-station
Davis Vue

Weather-program
Meteobridge

Weather-server
Raspberry PI 2 B+

Provider
1 and 1

Davis Vue

Meteobridge

Raspberry PI 2 B+

1 and 1